NOAA 16 DEB

Satellite information

Favourite Embed

Satellite Type and Status

DEBRISIN ORBIT

Key statistics

Satellite NOAA 16 DEB at a glance.

Uptime

9117

Days in orbit

Revolutions

≈ 14.4

Per day

Orbit

SSO

Sun Synchronous Orbit

Inclination

98.8

Latest

Satellite identification and parameters

Extended collection of information and parameters for NOAA 16 DEB.

Object identification

Identified? True

Debris? True

Object name: NOAA 16 DEB

International designator: 2000-055X

Object number (NORAD): 41064

Object ID (CCSDS): 41064

Country: UNITED STATES OF AMERICA (US)

Current information (Y/N): Y

RCS size: SMALL

Orbital parameters

Period: 99.969 minutes

Inclination: 98.8439 deg

SMA: 7135.169 km

Apoapsis: 765.431 km

Periapsis: 748.638 km

RAAN: 11.5463 deg

Eccentricy: 0.00117679

Argument of periapsis: 349.985 deg

Mean anomaly: 10.1101 deg

Mean motion: 14.40443818 rev/day

Mean motion (dot): 0.00013037 rev/day2

B* drag term: 0.0041062041 1/REarth

Two-line elements (TLE)

Creation date: Sept. 7, 2025, 3:09 a.m.

Reference frame: TEME

Reference center: EARTH

Epoch: Sept. 6, 2025, 10:04 p.m. UTC

TLE line 0: 0 NOAA 16 DEB

TLE line 1: 1 41064U 00055X 25249.91952223 .00013037 00000-0 41062-2 0 9999

TLE line 2: 2 41064 98.8439 11.5463 0011768 349.9850 10.1101 14.40443818507125

Live tracking on map

Real-time ground track for satellite NOAA 16 DEB.

In-orbit conjunctions

A list of the most updated potential collisions computed for object NOAA 16 DEB.

Target Orbit TCA Probability of collision Miss distance Type
COSMOS 1867 COOLANT LEO 2025-05-01 00:46:47 0.0001204563 106.0 (m) DEBRIS
COSMOS 676 LEO 2025-01-22 18:37:21 0.000127793 850.0 (m) PAYLOAD
COSMOS 1275 DEB LEO 2024-09-28 12:58:09 0.0001994454 362.0 (m) DEBRIS

Associated space launch

The NOAA K, L and M POES satellites begin the fifth generation of improved environmental monitoring in support of NOAA missions. The instrument payload has significant improvements and additions/deletions. The instrument changes have effected the spacecraft subsystems and data formats.

NOAA 16 DEB was lifted into orbit during the mission ‘Titan II SLV | NOAA 16’, on board a Titan II SLV space rocket.

The launch took place on Sept. 21, 2000, 10:22 a.m. from Space Launch Complex 4W.

For more information about the launch, click the button.

Launch to space Titan II SLV | NOAA 16
Titan II SLV | NOAA 16

Agency: N/A

Status: Launch Successful

Launch date: Sept. 21, 2000, 10:22 a.m. UTC

Rocket: Titan II SLV

Launch pad: Space Launch Complex 4W

Location: Vandenberg SFB, CA, USA

...

Latest news about this satellite

There are no fresh news available about this satellite. Check back as we update our databases every day.


Newsletter sign-up

Weekly statistics, charts and insights to help you stay on top of the space industry.